GFSGL_500_temp_162.txt.gz
Temp
-16 -16 -16 -16 -16 -16 -16 -16 -17 -17 -17 -18 -18 -18 -19 -20 -20 -21 -21 -21 -22 -22 -22 -22 -22 -22 -22 -22 -22 -22 -22 -22 -22 -21 -21 -21 -21 -21 -21 -21 -21 -21 -21
-17 -16 -16 -16 -17 -17 -17 -17 -17 -17 -18 -18 -19 -19 -20 -21 -21 -22 -22 -22 -22 -22 -22 -22 -22 -22 -22 -22 -23 -23 -22 -22 -22 -22 -22 -22 -22 -22 -22 -22 -21 -22 -22
-16 -17 -16 -16 -17 -17 -17 -17 -18 -18 -19 -19 -20 -21 -22 -22 -22 -22 -22 -22 -22 -22 -22 -22 -23 -22 -23 -23 -23 -23 -23 -23 -23 -23 -23 -23 -23 -23 -22 -22 -22 -22 -22
-17 -17 -17 -17 -17 -18 -18 -18 -19 -19 -20 -20 -21 -22 -22 -23 -23 -23 -23 -23 -23 -23 -23 -23 -23 -23 -24 -24 -24 -23 -24 -24 -24 -24 -24 -23 -23 -23 -23 -22 -22 -22 -22
-18 -18 -18 -18 -18 -18 -19 -19 -20 -20 -21 -21 -22 -23 -23 -23 -23 -23 -23 -23 -23 -23 -23 -23 -24 -24 -24 -24 -24 -24 -24 -24 -24 -24 -24 -24 -23 -23 -23 -22 -22 -22 -22
-18 -18 -18 -18 -18 -19 -19 -20 -21 -21 -22 -23 -23 -23 -23 -23 -23 -23 -23 -23 -23 -23 -24 -24 -24 -24 -24 -24 -25 -25 -25 -24 -24 -24 -24 -24 -23 -23 -22 -22 -22 -22 -22
-19 -19 -19 -19 -19 -19 -20 -21 -22 -22 -23 -23 -23 -23 -23 -23 -23 -23 -23 -23 -23 -24 -24 -24 -24 -25 -25 -26 -26 -26 -25 -25 -25 -25 -24 -24 -23 -23 -23 -23 -23 -23 -22
-19 -19 -20 -20 -20 -21 -22 -23 -23 -23 -23 -23 -23 -23 -23 -23 -23 -24 -24 -24 -24 -24 -25 -25 -25 -26 -26 -26 -26 -26 -26 -26 -26 -27 -27 -27 -27 -26 -26 -26 -26 -26 -26
-20 -20 -20 -21 -21 -22 -23 -23 -24 -23 -23 -23 -23 -23 -23 -23 -24 -24 -24 -24 -25 -25 -26 -26 -26 -26 -26 -26 -26 -27 -27 -28 -28 -28 -28 -28 -28 -28 -28 -29 -29 -29 -28
-20 -20 -21 -22 -23 -23 -23 -24 -24 -24 -24 -23 -23 -24 -24 -24 -25 -25 -25 -25 -26 -26 -26 -26 -27 -27 -27 -27 -28 -28 -28 -28 -28 -29 -29 -29 -30 -30 -31 -31 -31 -32 -31
-21 -22 -22 -23 -24 -24 -24 -24 -24 -24 -23 -24 -24 -24 -25 -25 -25 -25 -26 -26 -26 -27 -27 -27 -28 -28 -28 -28 -28 -29 -29 -29 -29 -30 -30 -31 -31 -32 -33 -33 -34 -34 -35
-23 -23 -24 -24 -25 -24 -24 -24 -24 -24 -24 -25 -25 -26 -25 -25 -26 -26 -26 -27 -27 -27 -28 -29 -29 -29 -29 -29 -29 -29 -30 -30 -31 -31 -32 -32 -33 -33 -34 -36 -37 -37 -37
-25 -25 -25 -25 -25 -24 -24 -24 -24 -24 -25 -25 -25 -25 -25 -26 -26 -27 -28 -28 -28 -29 -29 -29 -29 -30 -30 -30 -30 -30 -31 -32 -32 -33 -34 -33 -34 -35 -36 -37 -37 -37 -37
-25 -25 -25 -25 -25 -25 -24 -25 -25 -25 -26 -26 -26 -26 -27 -28 -28 -28 -28 -29 -29 -29 -29 -30 -30 -31 -31 -31 -32 -32 -32 -33 -34 -34 -34 -35 -36 -36 -37 -37 -37 -37 -37
-25 -25 -24 -25 -25 -25 -26 -26 -26 -26 -26 -26 -27 -27 -28 -28 -28 -29 -29 -29 -30 -30 -31 -31 -32 -32 -32 -33 -33 -33 -34 -35 -35 -35 -35 -36 -36 -36 -37 -37 -37 -37 -37
-25 -25 -25 -25 -25 -25 -25 -26 -26 -26 -27 -27 -28 -28 -28 -29 -29 -30 -30 -30 -31 -31 -32 -32 -33 -33 -33 -34 -34 -35 -35 -35 -36 -36 -36 -36 -36 -36 -37 -37 -37 -37 -36
-25 -25 -25 -25 -25 -26 -26 -26 -27 -27 -27 -28 -28 -28 -29 -29 -30 -31 -31 -32 -32 -33 -33 -33 -34 -34 -34 -34 -35 -35 -36 -36 -36 -36 -36 -36 -37 -37 -37 -37 -37 -37 -37
-25 -25 -25 -26 -26 -26 -27 -27 -27 -27 -28 -28 -29 -29 -29 -30 -31 -32 -32 -32 -33 -33 -34 -34 -34 -35 -35 -35 -36 -36 -36 -37 -37 -37 -37 -37 -37 -37 -37 -37 -37 -37 -37
-25 -26 -26 -26 -26 -27 -27 -27 -27 -28 -28 -28 -29 -29 -30 -31 -32 -32 -33 -33 -34 -34 -34 -35 -35 -35 -35 -36 -37 -37 -37 -37 -37 -37 -37 -37 -37 -37 -37 -37 -37 -37 -37
-26 -26 -26 -27 -27 -27 -27 -27 -27 -28 -28 -28 -29 -29 -30 -31 -32 -33 -33 -34 -34 -35 -35 -35 -35 -36 -36 -37 -37 -37 -38 -38 -38 -38 -38 -37 -37 -37 -37 -37 -37 -37 -37
-26 -27 -27 -27 -27 -27 -27 -27 -27 -28 -28 -29 -29 -30 -30 -31 -33 -33 -34 -34 -35 -35 -36 -36 -36 -36 -37 -37 -38 -38 -38 -38 -38 -38 -38 -38 -38 -38 -37 -37 -37 -37 -37
-27 -27 -27 -27 -27 -27 -27 -27 -28 -28 -29 -29 -29 -30 -31 -32 -33 -34 -34 -35 -35 -36 -36 -36 -37 -37 -37 -38 -38 -38 -38 -39 -39 -39 -39 -38 -38 -38 -38 -38 -37 -37 -37
-27 -27 -27 -27 -27 -27 -27 -28 -28 -29 -29 -30 -30 -30 -31 -32 -33 -34 -34 -35 -35 -36 -36 -37 -37 -37 -38 -38 -38 -39 -39 -39 -39 -39 -39 -39 -39 -38 -38 -38 -38 -38 -37
-27 -27 -27 -27 -27 -27 -28 -28 -29 -29 -30 -30 -30 -31 -31 -32 -33 -34 -35 -35 -36 -36 -37 -37 -37 -38 -38 -38 -39 -39 -39 -39 -39 -40 -39 -39 -39 -39 -39 -38 -38 -38 -38
-28 -27 -27 -27 -27 -28 -28 -29 -29 -30 -30 -30 -31 -31 -32 -32 -33 -34 -35 -36 -36 -37 -37 -37 -38 -38 -38 -39 -39 -39 -40 -40 -40 -40 -40 -40 -39 -39 -39 -39 -38 -38 -38
-27 -27 -27 -27 -27 -28 -29 -29 -29 -30 -30 -31 -31 -32 -32 -33 -34 -35 -36 -36 -36 -37 -37 -38 -38 -38 -39 -39 -39 -39 -40 -41 -41 -41 -41 -40 -40 -39 -39 -39 -39 -38 -38

GFSGL_500_temp_165.txt.gz
Temp
-15 -15 -15 -16 -16 -16 -16 -16 -17 -17 -17 -17 -17 -17 -17 -17 -17 -18 -18 -19 -20 -21 -21 -22 -22 -22 -22 -22 -22 -22 -22 -22 -22 -22 -22 -22 -22 -22 -22 -22 -22 -22 -22
-15 -16 -17 -17 -17 -17 -17 -17 -17 -17 -17 -17 -18 -18 -18 -18 -18 -19 -20 -21 -21 -22 -23 -22 -22 -23 -23 -23 -23 -23 -23 -23 -22 -22 -22 -23 -23 -23 -22 -22 -22 -22 -22
-17 -17 -17 -17 -17 -17 -17 -17 -18 -18 -18 -18 -18 -18 -18 -19 -19 -20 -21 -22 -22 -23 -23 -23 -23 -23 -23 -23 -23 -23 -23 -23 -23 -23 -23 -23 -23 -23 -23 -23 -23 -23 -23
-17 -17 -17 -17 -18 -18 -18 -18 -18 -18 -19 -19 -19 -20 -20 -21 -21 -22 -22 -23 -23 -23 -23 -23 -23 -23 -23 -24 -23 -24 -24 -24 -24 -24 -24 -24 -24 -24 -24 -23 -23 -24 -23
-18 -18 -18 -18 -18 -18 -19 -19 -19 -19 -19 -20 -20 -21 -21 -22 -22 -22 -23 -23 -23 -24 -23 -23 -23 -23 -24 -24 -24 -24 -24 -24 -24 -25 -25 -25 -24 -24 -24 -24 -24 -23 -23
-19 -19 -19 -19 -19 -19 -19 -19 -19 -20 -20 -21 -21 -22 -22 -23 -23 -23 -24 -23 -23 -24 -24 -24 -24 -24 -24 -24 -24 -25 -25 -25 -25 -25 -25 -25 -25 -25 -24 -24 -24 -23 -23
-19 -19 -19 -19 -19 -19 -19 -19 -20 -20 -21 -22 -23 -23 -23 -23 -23 -24 -24 -24 -24 -24 -24 -24 -24 -25 -25 -25 -25 -26 -26 -26 -26 -26 -26 -25 -25 -25 -25 -26 -26 -26 -27
-19 -19 -19 -19 -19 -19 -19 -20 -20 -21 -21 -22 -23 -24 -24 -24 -24 -24 -24 -24 -24 -24 -25 -25 -25 -25 -25 -26 -26 -27 -27 -27 -26 -27 -27 -27 -28 -28 -28 -28 -28 -28 -28
-19 -19 -19 -20 -20 -20 -20 -20 -21 -21 -23 -23 -24 -24 -25 -24 -24 -24 -24 -24 -25 -25 -25 -26 -26 -26 -26 -27 -27 -28 -28 -28 -28 -28 -28 -29 -29 -29 -29 -29 -29 -30 -30
-20 -20 -20 -20 -20 -20 -20 -21 -22 -23 -24 -24 -24 -25 -25 -25 -24 -24 -24 -25 -26 -26 -26 -26 -26 -27 -27 -28 -28 -28 -29 -29 -29 -29 -30 -30 -30 -31 -31 -31 -31 -32 -32
-20 -20 -20 -21 -21 -21 -22 -23 -24 -25 -25 -25 -25 -25 -25 -25 -26 -26 -26 -26 -26 -26 -26 -27 -28 -28 -28 -29 -29 -29 -29 -30 -30 -31 -31 -31 -31 -32 -32 -33 -33 -33 -34
-21 -21 -21 -22 -23 -24 -24 -24 -25 -25 -25 -25 -24 -25 -25 -26 -26 -26 -26 -26 -27 -28 -28 -28 -29 -29 -29 -30 -30 -30 -31 -31 -32 -32 -32 -32 -33 -33 -34 -34 -35 -35 -35
-22 -23 -24 -25 -25 -25 -25 -25 -25 -25 -25 -25 -26 -26 -26 -26 -26 -27 -27 -27 -28 -28 -29 -29 -30 -30 -31 -31 -32 -32 -32 -32 -33 -33 -33 -33 -34 -35 -35 -35 -36 -36 -36
-24 -25 -25 -25 -25 -25 -25 -24 -24 -25 -25 -26 -26 -26 -26 -27 -27 -27 -27 -28 -28 -29 -29 -30 -31 -31 -32 -32 -33 -33 -33 -33 -34 -34 -34 -35 -35 -35 -36 -36 -36 -36 -36
-25 -25 -25 -25 -25 -25 -25 -25 -25 -26 -26 -26 -26 -26 -27 -27 -27 -27 -28 -28 -29 -30 -31 -31 -32 -33 -33 -33 -34 -34 -34 -34 -34 -34 -35 -36 -36 -36 -36 -36 -36 -37 -37
-25 -25 -25 -24 -25 -25 -25 -25 -26 -26 -26 -26 -27 -27 -27 -27 -27 -28 -28 -28 -29 -30 -31 -32 -33 -33 -34 -34 -35 -35 -35 -35 -35 -36 -36 -36 -37 -37 -37 -37 -37 -37 -37
-25 -25 -25 -25 -25 -25 -25 -26 -26 -27 -27 -27 -27 -27 -27 -28 -28 -28 -28 -29 -29 -30 -32 -33 -34 -34 -35 -35 -35 -35 -35 -36 -36 -37 -37 -37 -37 -37 -37 -37 -37 -37 -37
-25 -25 -25 -25 -25 -25 -26 -27 -26 -27 -27 -27 -27 -27 -28 -28 -28 -28 -29 -29 -30 -31 -32 -33 -34 -35 -35 -36 -36 -36 -36 -36 -37 -37 -37 -37 -38 -38 -38 -38 -37 -37 -37
-25 -25 -25 -25 -26 -26 -26 -26 -26 -26 -27 -27 -28 -28 -28 -28 -29 -29 -29 -30 -30 -31 -32 -33 -34 -35 -35 -36 -36 -36 -37 -37 -37 -38 -38 -38 -38 -38 -38 -38 -38 -38 -37
-25 -26 -26 -26 -26 -26 -26 -26 -26 -27 -27 -27 -28 -28 -28 -29 -29 -29 -30 -30 -31 -31 -32 -33 -34 -35 -36 -36 -37 -37 -37 -37 -38 -38 -38 -39 -39 -39 -39 -39 -38 -38 -38
-26 -26 -26 -26 -26 -26 -26 -26 -27 -27 -27 -27 -28 -28 -29 -29 -30 -30 -30 -30 -31 -31 -33 -34 -35 -36 -36 -37 -37 -38 -38 -38 -38 -39 -39 -39 -39 -39 -39 -39 -39 -39 -38
-26 -26 -27 -27 -26 -26 -26 -27 -27 -27 -27 -27 -28 -29 -29 -30 -30 -30 -31 -31 -31 -32 -33 -34 -35 -36 -37 -37 -38 -38 -38 -38 -39 -39 -39 -40 -40 -40 -40 -40 -40 -39 -39
-27 -27 -27 -27 -26 -26 -27 -27 -27 -27 -27 -28 -29 -29 -30 -30 -30 -31 -31 -31 -32 -32 -33 -34 -36 -36 -37 -37 -38 -38 -38 -39 -39 -39 -40 -40 -41 -41 -41 -40 -40 -39 -39
-27 -27 -27 -27 -27 -27 -27 -27 -27 -27 -28 -28 -29 -29 -30 -30 -31 -31 -31 -32 -32 -33 -34 -35 -36 -37 -37 -38 -38 -38 -39 -39 -39 -39 -40 -41 -42 -42 -41 -41 -40 -40 -39
-27 -27 -27 -27 -27 -27 -27 -27 -27 -27 -28 -28 -29 -30 -30 -31 -31 -31 -32 -32 -33 -33 -34 -35 -36 -37 -37 -38 -38 -39 -39 -39 -39 -40 -41 -41 -42 -42 -41 -41 -41 -40 -40
-27 -27 -27 -27 -27 -27 -27 -27 -27 -28 -28 -29 -29 -30 -30 -31 -31 -32 -32 -33 -33 -34 -34 -35 -36 -37 -38 -38 -38 -39 -39 -39 -39 -40 -41 -42 -42 -42 -41 -41 -41 -40 -40

GFSGL_500_temp_168.txt.gz
Temp
-14 -15 -15 -15 -16 -16 -16 -16 -16 -17 -17 -17 -17 -17 -17 -17 -17 -18 -18 -18 -18 -18 -19 -19 -20 -21 -21 -22 -22 -23 -22 -23 -23 -23 -23 -23 -23 -23 -23 -23 -23 -23 -23
-16 -16 -16 -16 -16 -16 -17 -17 -17 -17 -17 -17 -17 -17 -18 -18 -18 -18 -18 -19 -19 -19 -20 -21 -21 -21 -23 -23 -23 -23 -23 -23 -23 -23 -23 -23 -23 -23 -23 -23 -23 -23 -23
-16 -17 -17 -17 -17 -17 -17 -17 -17 -17 -17 -17 -18 -18 -18 -18 -19 -19 -19 -20 -20 -21 -21 -21 -22 -23 -23 -24 -24 -24 -24 -24 -24 -23 -23 -24 -24 -24 -24 -24 -24 -24 -24
-18 -18 -18 -18 -17 -17 -17 -17 -17 -18 -18 -18 -18 -18 -18 -19 -19 -20 -20 -21 -21 -22 -22 -23 -23 -24 -24 -24 -24 -24 -24 -24 -24 -24 -24 -24 -24 -24 -24 -24 -24 -25 -24
-19 -19 -19 -18 -18 -18 -18 -18 -18 -18 -18 -18 -18 -19 -19 -19 -20 -20 -21 -22 -23 -23 -23 -24 -24 -24 -24 -24 -24 -24 -24 -24 -25 -25 -25 -25 -25 -25 -25 -25 -25 -25 -25
-20 -19 -19 -19 -19 -19 -19 -19 -19 -19 -19 -19 -19 -19 -20 -20 -20 -21 -22 -23 -24 -25 -25 -24 -25 -25 -24 -24 -24 -25 -25 -26 -26 -26 -26 -26 -26 -26 -26 -26 -26 -26 -25
-20 -20 -20 -20 -20 -19 -19 -19 -19 -19 -19 -19 -20 -20 -20 -21 -22 -22 -24 -25 -25 -25 -25 -25 -24 -25 -25 -26 -26 -26 -26 -26 -26 -26 -26 -26 -27 -27 -28 -28 -28 -28 -28
-21 -20 -20 -20 -20 -20 -20 -20 -20 -20 -20 -20 -20 -20 -21 -22 -23 -24 -25 -25 -25 -25 -25 -25 -25 -26 -26 -26 -26 -26 -27 -27 -27 -28 -28 -29 -29 -29 -29 -29 -29 -29 -29
-21 -21 -21 -21 -20 -20 -20 -20 -20 -20 -20 -21 -21 -22 -23 -24 -25 -25 -25 -25 -25 -25 -25 -26 -26 -26 -26 -26 -27 -28 -28 -29 -29 -29 -30 -30 -30 -30 -30 -30 -30 -31 -31
-21 -21 -21 -21 -21 -21 -21 -21 -21 -21 -21 -22 -23 -24 -25 -25 -25 -25 -25 -25 -26 -26 -26 -26 -26 -27 -27 -28 -28 -29 -30 -30 -31 -31 -31 -32 -32 -32 -32 -32 -32 -32 -32
-21 -21 -21 -21 -21 -21 -21 -22 -22 -22 -23 -24 -24 -25 -25 -25 -25 -25 -26 -26 -26 -26 -26 -27 -27 -27 -27 -28 -29 -30 -30 -31 -32 -32 -33 -33 -33 -33 -34 -34 -34 -34 -34
-22 -22 -22 -22 -22 -22 -23 -23 -23 -24 -25 -25 -25 -25 -25 -25 -26 -26 -26 -26 -26 -27 -27 -27 -27 -27 -28 -28 -29 -30 -31 -32 -33 -33 -34 -34 -34 -34 -35 -35 -35 -36 -35
-24 -24 -23 -23 -23 -24 -24 -24 -25 -25 -25 -25 -24 -25 -25 -25 -26 -26 -26 -26 -27 -27 -27 -27 -28 -28 -28 -29 -30 -31 -32 -33 -34 -34 -35 -35 -35 -35 -35 -36 -36 -36 -36
-24 -24 -24 -25 -25 -25 -25 -25 -25 -24 -25 -25 -25 -25 -26 -26 -26 -27 -27 -27 -27 -27 -28 -28 -28 -28 -29 -29 -30 -32 -33 -34 -35 -35 -35 -36 -36 -36 -36 -37 -37 -37 -37
-26 -26 -26 -26 -26 -26 -25 -25 -25 -25 -25 -25 -25 -26 -26 -26 -27 -27 -27 -27 -28 -28 -28 -28 -29 -29 -29 -30 -31 -32 -33 -34 -35 -36 -36 -36 -36 -37 -37 -37 -37 -38 -38
-27 -27 -27 -26 -26 -25 -25 -25 -25 -26 -26 -25 -26 -26 -26 -26 -27 -27 -28 -28 -28 -28 -29 -29 -29 -30 -30 -30 -31 -32 -34 -35 -36 -36 -37 -37 -37 -37 -37 -38 -38 -38 -38
-27 -27 -26 -26 -25 -25 -25 -26 -26 -26 -26 -26 -26 -26 -27 -27 -27 -27 -28 -28 -28 -29 -29 -29 -30 -30 -30 -31 -32 -33 -35 -36 -36 -37 -37 -37 -38 -38 -38 -38 -38 -38 -39
-26 -26 -26 -25 -25 -25 -26 -26 -26 -26 -26 -26 -26 -26 -27 -27 -27 -28 -28 -28 -29 -29 -30 -30 -30 -31 -31 -32 -33 -34 -35 -36 -37 -37 -38 -38 -38 -38 -38 -38 -38 -39 -39
-26 -25 -25 -25 -26 -26 -26 -26 -26 -26 -26 -26 -27 -27 -27 -27 -27 -28 -28 -29 -30 -30 -30 -31 -31 -31 -32 -32 -33 -34 -35 -36 -37 -38 -38 -38 -38 -39 -39 -39 -39 -39 -40
-25 -25 -26 -26 -26 -26 -26 -27 -26 -26 -26 -27 -27 -27 -27 -27 -28 -28 -29 -29 -30 -30 -31 -31 -31 -32 -32 -33 -34 -35 -36 -37 -37 -38 -38 -38 -39 -39 -39 -39 -39 -40 -40
-26 -26 -26 -26 -26 -27 -27 -26 -26 -26 -27 -27 -27 -27 -27 -27 -28 -28 -29 -30 -30 -31 -31 -31 -32 -32 -33 -33 -34 -35 -36 -37 -37 -38 -38 -39 -39 -39 -40 -40 -40 -41 -41
-26 -26 -26 -26 -27 -27 -27 -26 -27 -27 -27 -27 -27 -27 -27 -28 -28 -28 -29 -30 -30 -31 -31 -32 -32 -32 -33 -34 -34 -35 -36 -37 -38 -38 -39 -39 -39 -40 -40 -41 -41 -41 -41
-26 -26 -26 -27 -27 -27 -27 -27 -27 -27 -27 -27 -27 -27 -27 -28 -28 -29 -29 -30 -31 -31 -32 -32 -33 -33 -33 -34 -35 -35 -36 -37 -38 -39 -39 -39 -39 -40 -41 -41 -41 -41 -41
-26 -27 -27 -27 -27 -27 -27 -27 -27 -27 -27 -27 -27 -27 -28 -28 -28 -29 -30 -30 -31 -31 -32 -33 -33 -33 -34 -34 -35 -36 -36 -37 -38 -39 -39 -40 -40 -41 -41 -42 -42 -41 -41
-27 -27 -27 -27 -27 -27 -27 -27 -27 -27 -27 -27 -27 -27 -28 -28 -29 -29 -30 -31 -31 -32 -32 -33 -33 -34 -34 -35 -36 -36 -36 -37 -38 -39 -39 -40 -40 -41 -42 -42 -42 -41 -41
-27 -28 -27 -27 -27 -27 -27 -27 -27 -27 -27 -27 -27 -28 -28 -28 -29 -30 -30 -31 -32 -32 -33 -33 -34 -34 -34 -35 -36 -36 -37 -38 -39 -39 -40 -40 -40 -41 -42 -42 -41 -41 -41

GFSGL_500_temp_171.txt.gz
Temp
-16 -16 -16 -16 -16 -16 -15 -16 -16 -16 -16 -16 -17 -17 -17 -17 -17 -17 -18 -18 -18 -18 -19 -19 -19 -19 -20 -20 -21 -21 -22 -22 -23 -24 -24 -24 -24 -24 -24 -24 -24 -24 -24
-17 -17 -16 -16 -16 -17 -17 -17 -17 -17 -17 -17 -17 -17 -17 -18 -18 -18 -18 -18 -19 -19 -19 -19 -20 -20 -21 -22 -22 -22 -23 -24 -24 -24 -24 -24 -24 -24 -24 -24 -24 -24 -24
-17 -17 -17 -17 -17 -18 -17 -18 -18 -18 -18 -18 -18 -18 -18 -19 -19 -19 -19 -19 -19 -19 -20 -20 -20 -21 -22 -23 -24 -24 -24 -24 -24 -25 -24 -24 -24 -24 -25 -25 -25 -25 -25
-18 -18 -18 -18 -18 -18 -18 -19 -18 -18 -18 -18 -19 -19 -19 -19 -19 -19 -19 -19 -20 -20 -20 -21 -22 -23 -24 -24 -25 -25 -25 -25 -25 -24 -24 -25 -25 -25 -25 -25 -26 -26 -26
-19 -19 -19 -19 -20 -19 -19 -19 -19 -19 -19 -19 -19 -19 -19 -20 -20 -20 -20 -20 -20 -20 -21 -22 -23 -25 -25 -25 -25 -25 -25 -25 -25 -25 -26 -26 -26 -26 -26 -26 -26 -26 -27
-20 -21 -21 -20 -20 -21 -21 -20 -20 -19 -19 -20 -20 -20 -20 -20 -20 -20 -20 -20 -21 -22 -23 -24 -25 -25 -25 -25 -25 -25 -25 -26 -26 -26 -26 -26 -26 -27 -27 -28 -28 -28 -29
-22 -22 -22 -22 -22 -21 -21 -21 -21 -20 -20 -20 -20 -20 -20 -20 -20 -21 -21 -22 -23 -24 -25 -25 -25 -25 -25 -25 -25 -26 -26 -26 -26 -27 -27 -26 -27 -27 -28 -29 -30 -30 -30
-22 -23 -22 -22 -22 -22 -22 -21 -21 -21 -21 -21 -21 -21 -21 -21 -21 -22 -23 -24 -25 -25 -25 -25 -25 -25 -26 -26 -26 -26 -27 -27 -27 -27 -27 -27 -28 -29 -30 -31 -31 -31 -32
-22 -22 -22 -22 -21 -22 -22 -22 -21 -21 -21 -21 -21 -21 -21 -22 -23 -24 -25 -25 -25 -25 -25 -25 -26 -26 -26 -27 -27 -27 -27 -27 -28 -28 -28 -28 -29 -31 -31 -32 -32 -33 -33
-22 -22 -22 -22 -22 -22 -22 -23 -23 -23 -22 -21 -21 -22 -23 -24 -25 -25 -25 -25 -25 -25 -26 -26 -27 -27 -27 -27 -27 -28 -28 -28 -28 -29 -29 -29 -31 -32 -32 -33 -34 -34 -34
-23 -23 -23 -23 -24 -24 -24 -24 -23 -23 -23 -23 -23 -24 -25 -25 -25 -25 -25 -25 -25 -26 -26 -27 -27 -27 -27 -27 -28 -28 -28 -28 -29 -29 -30 -31 -32 -33 -34 -34 -35 -35 -35
-24 -24 -24 -24 -24 -24 -24 -24 -24 -24 -24 -25 -25 -26 -25 -25 -25 -26 -26 -25 -26 -27 -27 -27 -27 -27 -28 -28 -28 -29 -29 -29 -29 -30 -30 -31 -32 -34 -35 -36 -36 -36 -36
-25 -25 -25 -25 -25 -25 -25 -25 -26 -25 -25 -26 -25 -25 -25 -26 -26 -25 -26 -26 -27 -27 -27 -27 -27 -28 -28 -28 -29 -29 -29 -30 -30 -30 -31 -32 -33 -34 -36 -36 -37 -37 -37
-25 -26 -26 -26 -26 -26 -26 -27 -27 -26 -26 -26 -26 -26 -26 -26 -26 -26 -27 -26 -26 -27 -27 -27 -28 -28 -28 -29 -29 -30 -30 -30 -30 -31 -32 -33 -34 -35 -36 -37 -37 -38 -38
-29 -29 -29 -29 -29 -28 -28 -27 -27 -26 -26 -26 -26 -26 -26 -26 -26 -26 -26 -27 -27 -27 -27 -28 -28 -28 -29 -29 -30 -30 -30 -31 -31 -32 -32 -33 -35 -36 -37 -38 -38 -38 -39
-29 -29 -30 -30 -29 -29 -28 -27 -26 -26 -26 -26 -26 -26 -26 -26 -26 -27 -27 -27 -27 -27 -28 -28 -28 -29 -29 -30 -30 -31 -31 -31 -32 -32 -33 -34 -36 -37 -37 -38 -38 -39 -39
-28 -29 -29 -29 -28 -28 -27 -26 -26 -26 -26 -26 -27 -26 -26 -27 -27 -27 -27 -27 -27 -28 -28 -28 -28 -29 -30 -30 -31 -31 -32 -32 -32 -33 -34 -35 -37 -38 -38 -38 -38 -39 -39
-28 -28 -28 -27 -27 -27 -26 -26 -26 -26 -26 -27 -26 -26 -27 -27 -27 -27 -27 -27 -27 -27 -28 -28 -29 -30 -30 -31 -31 -32 -32 -33 -33 -34 -35 -35 -37 -38 -38 -39 -39 -39 -39
-27 -27 -27 -27 -26 -26 -26 -26 -26 -27 -27 -27 -26 -27 -27 -27 -27 -27 -27 -27 -27 -28 -28 -29 -29 -30 -31 -31 -32 -32 -33 -33 -34 -34 -35 -36 -37 -38 -39 -39 -39 -39 -39
-25 -25 -26 -26 -26 -26 -26 -26 -27 -27 -27 -27 -27 -27 -27 -27 -27 -27 -27 -27 -27 -28 -28 -29 -30 -30 -31 -32 -32 -33 -33 -33 -34 -35 -35 -36 -37 -38 -39 -39 -39 -40 -40
-25 -25 -26 -26 -26 -26 -26 -27 -27 -27 -27 -27 -27 -27 -27 -27 -27 -27 -27 -27 -28 -28 -29 -29 -30 -31 -31 -32 -33 -33 -33 -34 -35 -35 -36 -36 -37 -39 -39 -39 -40 -40 -40
-25 -26 -26 -26 -26 -26 -27 -27 -27 -27 -27 -27 -27 -27 -27 -27 -27 -27 -27 -28 -28 -28 -29 -30 -30 -31 -32 -32 -33 -33 -34 -34 -35 -36 -36 -37 -38 -39 -39 -39 -40 -41 -41
-26 -26 -26 -26 -26 -27 -27 -27 -27 -27 -27 -27 -27 -27 -27 -27 -27 -27 -28 -28 -28 -29 -29 -30 -31 -31 -32 -32 -33 -34 -34 -35 -35 -36 -36 -37 -38 -39 -39 -40 -40 -41 -41
-26 -26 -26 -26 -27 -27 -27 -27 -27 -27 -27 -27 -27 -27 -27 -27 -28 -28 -28 -28 -29 -29 -30 -31 -31 -32 -32 -33 -33 -34 -34 -35 -36 -36 -37 -37 -38 -39 -40 -40 -40 -41 -41
-27 -26 -26 -27 -27 -27 -28 -27 -27 -27 -27 -27 -27 -27 -27 -28 -28 -28 -28 -29 -29 -29 -30 -31 -32 -32 -33 -33 -34 -34 -35 -35 -36 -36 -37 -38 -38 -39 -40 -40 -40 -41 -41
-27 -27 -27 -27 -28 -28 -28 -28 -27 -27 -27 -27 -27 -27 -28 -28 -28 -28 -28 -29 -29 -30 -30 -31 -32 -32 -33 -34 -34 -35 -35 -35 -36 -37 -37 -38 -39 -39 -40 -40 -40 -41 -41